Location: Unspecified
(41.5000°N, 0.0000°E)
Time: 07:17:24
(UTC+00:00)

Vanguard 3 - Pass Details

Date: 19 June 2019
Orbit: 507 x 3264 km, 33.4° (Epoch: 19 July)

Event Time Altitude Azimuth Distance (km) Brightness Sun altitude
Rises 11:19:14 0° 225° (SW) 6,179 11.7 69.9°
Reaches altitude 10° 11:24:35 10° 216° (SW) 4,689 11.3 70.4°
Maximum altitude 11:34:14 29° 164° (SSE) 2,493 10.5 71.1°
Drops below altitude 10° 11:40:25 10° 107° (ESE) 2,935 10.3 71.4°
Sets 11:42:56 0° 95° (E) 3,594 10.5 71.5°
